カタログに戻る

STARLINK-31991

運用中通信VLEO
NORAD 59963·PAYLOAD·🇺🇸 United States

打ち上げ Jun 5, 2024 から Cape Canaveral Space Force Station

Loading…

次のパス (今後24時間)

TLE

最新Source: CelesTrak SupGP

元期: Sep 14, 2026, 13:46 UTC

1 59963C 24107U   26257.57409722  .00008613  00000+0  25453-3 0  2570
2 59963  53.1570 265.3726 0001208  82.7975 331.8774 15.34378668    10

AllMySatでSTARLINK-31991をリアルタイム追跡

Download on the App Store